Regional Weather Roundup
Issued by NWS Nashville, TN

Home | Current Version | Previous Version | Text Only | Print | Product List | Glossary On
Versions: 1 2 3 4 5 6 7 8 9 10 11 12 13 14 15 16 17 18 19 20 21 22 23 24 25 26 27 28 29 30 31 32 33 34 35 36 37 38 39 40 41 42 43 44 45 46 47 48 49 50
000
ASUS44 KOHX 010010
RWROHX
MIDDLE TENNESSEE HOURLY WEATHER ROUNDUP
NATIONAL WEATHER SERVICE NASHVILLE TN
700 PM CDT SAT APR 30 2016

NOTE: "FAIR" INDICATES FEW OR NO CLOUDS BELOW 12,000 FEET WITH
NO SIGNIFICANT WEATHER AND/OR OBSTRUCTIONS TO VISIBILITY.

* THESE REPORTS ARE NOT UNDER NWS QUALITY CONTROL AND MAY NOT
  REPORT WEATHER SUCH AS PRECIPITATION AND FOG.


TNZ005>011-023>034-057-059-062>066-078-080-010100
...NORTHERN MIDDLE TENNESSEE...

CITY           SKY/WX    TMP DP  RH WIND       PRES   REMARKS
CLARKSVILLE    CLOUDY    68  64  87 NW6       29.87R
CROSSVILLE     RAIN      66  61  84 SE9G21    29.98R
NASHVILLE      CLOUDY    70  66  87 SE6       29.86F
SMYRNA         CLOUDY    69  67  93 CALM      29.87F
SPARTA         CLOUDY    70  68  94 CALM      29.91R
$$
TNZ056-058-060-061-075>077-079-093>097-010100
...SOUTHERN MIDDLE TENNESSEE...

CITY           SKY/WX    TMP DP  RH WIND       PRES   REMARKS
COLUMBIA       PTCLDY   N/A N/A N/A SE5       29.84S
FAYETTEVILLE   PTCLDY    68  66  94 SE5       29.87F
MCMINNVILLE    MOCLDY    70  70 100 CALM      29.91S
SHELBYVILLE    PTCLDY    70  70 100 E3        29.88F
TULLAHOMA      PTCLDY    66  66 100 CALM      29.90R
WINCHESTER     CLEAR     70  66  88 CALM      29.89F
$$


...KEY TO REMARKS...
VSB - VISIBILITY IN MILES
WCI - WIND CHILL INDEX
HX  - HEAT INDEX




USA.gov is the U.S. government's official web portal to all federal, state and local government web resources and services.